Broken Bow, NE

3:30 PM CDT on June 26, 2017 (GMT -0500)
Broken Bow Municipal

Weather History for KBBW - July, 2013

Change the Weather History Date:

Wednesday, July 3, 2013

  Actual Average Record
Temperature  
Mean Temperature 67 °F 73 °F  
Max Temperature 84 °F 86 °F 106 °F (1990)
Min Temperature 50 °F 60 °F 43 °F (1967)
Degree Days  
Heating Degree Days 0 0  
Month to date heating degree days 1 0  
Since 1 June heating degree days 42 46  
Cooling Degree Days 2 8  
Month to date cooling degree days 2 24  
Year to date cooling degree days 204 210  
Since 1 June cooling degree days 169 176  
Growing Degree Days 18 (Base 50)    
Moisture  
Dew Point 49 °F    
Average Humidity 62    
Maximum Humidity 100    
Minimum Humidity 24    
Precipitation  
Precipitation 0.00 in 0.09 in 2.43 in (1981)
Sea Level Pressure  
Sea Level Pressure 29.99 in    
Wind  
Wind Speed 5 mph (SSE)    
Max Wind Speed 14 mph    
Max Gust Speed 23 mph    
Visibility 9 miles    
Events      
T = Trace of Precipitation, MM = Missing Value Source: NWS Daily Summary

Daily Weather History Graph

Daily Weather History Graph

Search for Another Location

Airport or City:

Trip Planner

Search our weather history database for the weather conditions in past years. The results will help you decide how hot, cold, wet, or windy it might be!

Date:

Astronomy

Jul. 03, 2013 Rise Set
Actual Time 6:09 AM CDT 9:15 PM CDT
Civil Twilight 5:36 AM CDT 9:49 PM CDT
Nautical Twilight 4:53 AM CDT 10:32 PM CDT
Astronomical Twilight 4:02 AM CDT 11:23 PM CDT
Moon 2:50 AM CDT (7/3) 5:26 PM CDT (7/3)
Length of Visible Light 16h 13m
Length of Day
15h 05m
Waning Crescent, 18% of the Moon is Illuminated
Jul 3
Waning Crescent
Jul 8
New
Jul 15
First Quarter
Jul 22
Full
Jul 29
Last Quarter

Hourly Weather History & Observations

Time (CDT) Temp. Dew Point Humidity Pressure Visibility Wind Dir Wind Speed Gust Speed Precip Events Conditions
12:53 AM 55.0 °F 51.1 °F 86% 30.09 in 10.0 mi Calm Calm - N/A   Clear
1:53 AM 53.1 °F 52.0 °F 96% 30.08 in 7.0 mi Calm Calm - N/A   Clear
2:53 AM 52.0 °F 51.1 °F 97% 30.08 in 7.0 mi Calm Calm - N/A   Clear
3:53 AM 52.0 °F 50.0 °F 93% 30.06 in 8.0 mi Calm Calm - N/A   Clear
4:53 AM 51.1 °F 50.0 °F 96% 30.05 in 6.0 mi Calm Calm - N/A   Clear
5:53 AM 51.1 °F 48.9 °F 92% 30.05 in 6.0 mi Calm Calm - N/A   Clear
6:53 AM 52.0 °F 50.0 °F 93% 30.05 in 5.0 mi Calm Calm - N/A   Clear
7:53 AM 61.0 °F 53.1 °F 75% 30.04 in 7.0 mi Calm Calm - N/A   Clear
8:53 AM 64.9 °F 54.0 °F 68% 30.04 in 7.0 mi South 3.5 mph - N/A   Clear
9:53 AM 71.1 °F 54.0 °F 55% 30.04 in 10.0 mi SE 6.9 mph - N/A   Clear
10:53 AM 75.0 °F 51.1 °F 43% 30.02 in 10.0 mi SSE 4.6 mph - N/A   Clear
11:53 AM 78.1 °F 51.1 °F 39% 30.00 in 10.0 mi Variable 5.8 mph - N/A   Clear
12:53 PM 80.1 °F 45.0 °F 29% 29.99 in 10.0 mi South 4.6 mph - N/A   Scattered Clouds
1:53 PM 82.0 °F 42.1 °F 24% 29.97 in 10.0 mi Variable 4.6 mph - N/A   Clear
2:53 PM 82.9 °F 43.0 °F 24% 29.95 in 10.0 mi WSW 6.9 mph - N/A   Partly Cloudy
3:53 PM 84.0 °F 46.0 °F 26% 29.94 in 10.0 mi South 11.5 mph 21.9 mph N/A   Scattered Clouds
4:53 PM 84.0 °F 45.0 °F 25% 29.92 in 10.0 mi SSW 5.8 mph 16.1 mph N/A   Scattered Clouds
5:53 PM 82.9 °F 46.0 °F 27% 29.91 in 10.0 mi South 11.5 mph - N/A   Clear
6:53 PM 82.0 °F 46.0 °F 28% 29.89 in 10.0 mi South 12.7 mph - N/A   Clear
7:53 PM 78.1 °F 50.0 °F 37% 29.88 in 10.0 mi SE 8.1 mph - N/A   Clear
8:53 PM 73.0 °F 51.1 °F 46% 29.89 in 10.0 mi SSE 9.2 mph - N/A   Clear
9:53 PM 68.0 °F 53.1 °F 59% 29.90 in 8.0 mi SE 8.1 mph - N/A   Clear
10:53 PM 66.9 °F 50.0 °F 54% 29.92 in 10.0 mi SSE 8.1 mph - N/A   Clear
11:53 PM 64.9 °F 50.0 °F 58% 29.92 in 10.0 mi SSE 6.9 mph - N/A   Clear